Weather in Nasadka

Russia / Perm Krai     57°52′21″N   56°47′25″E
temp.,
°C
wind,
m/s
gust,
m/s
humid.,
%
clouds,
%
prec.,
mm/h
press.,
hPa
HPBL,
m
31 july, sat
sat3123:00+15w29965 1.4 1003198
02:00+14wnw259726 0.0 1005105
05:00+13wsw1197100 0.0 100510
08:00+16ssw1293100 0.0 1006134
11:00+21s2371100 0.0 1006564
14:00+17sw1297100 4.1 100558
17:00+17se3899100 10.3 1004357
20:00+18se489897 0.8 1003368
1 august, sun
sun123:00+17s259931 1.9 1002140
02:00+18wsw4997100 0.1 1003535
05:00+17wsw399992 0.1 1004409
08:00+18wsw3109261 0.0 1006390
11:00+23w59565 0.1 10061114
14:00+24w6115121 0.1 10071989
17:00+22wnw51054100 0.1 10081695
20:00+20wsw3966100 0.0 1009352
2 august, mon
mon223:00+18wsw2870100 0.0 1010194
02:00+15wnw2285100 0.0 101127
05:00+14w1190100 0.0 101211
08:00+18wsw127398 0.0 1013177
11:00+20sw246996 0.0 1013495
14:00+20ssw2574100 0.3 1013363
17:00+25wsw4856100 0.3 10121251
20:00+21sw2675100 0.0 1012137
3 august, tue
tue323:00+18ssw119143 0.6 101211
02:00+17sw229558 0.1 101219
05:00+16wsw1195100 0.6 101211
08:00+19s128975 0.0 1013119
11:00+25ssw236325 0.0 1013612
14:00+30ssw364476 0.0 10121705
17:00+31ssw354118 0.0 10111932
20:00+25se22695 0.0 101031
4 august, wed
wed423:00+20s25759 0.0 101191
02:00+18sse22765 0.0 101127
05:00+17sse11755 0.0 101112
08:00+21sse236972 0.0 1011120
11:00+26sse465123 0.0 1011558
14:00+30sse354313 0.0 1009912
17:00+31s364214 0.0 10091364
20:00+26s3105851 0.0 1008295